Year,Month,Day,Hour,Minute,Value (Times are PST for barometer in hPa)
2008,01,05,00,00,975.25
2008,01,05,00,01,975.31
2008,01,05,00,02,975.31
2008,01,05,00,03,975.35
2008,01,05,00,04,975.35
2008,01,05,00,05,975.35
2008,01,05,00,06,975.31
2008,01,05,00,07,975.38
2008,01,05,00,08,975.38
2008,01,05,00,09,975.35
2008,01,05,00,10,975.31
2008,01,05,00,11,975.31
2008,01,05,00,12,975.28
2008,01,05,00,13,975.31
2008,01,05,00,14,975.31
2008,01,05,00,15,975.35
2008,01,05,00,16,975.38
2008,01,05,00,17,975.35
2008,01,05,00,18,975.35
2008,01,05,00,19,975.35
2008,01,05,00,20,975.38
2008,01,05,00,21,975.35
2008,01,05,00,22,975.28
2008,01,05,00,23,975.25
2008,01,05,00,24,975.31
2008,01,05,00,25,975.21
2008,01,05,00,26,975.31
2008,01,05,00,27,975.31
2008,01,05,00,28,975.38
2008,01,05,00,29,975.42
2008,01,05,00,30,975.45
2008,01,05,00,31,975.45
2008,01,05,00,32,975.52
2008,01,05,00,33,975.62
2008,01,05,00,34,975.65
2008,01,05,00,35,975.72
2008,01,05,00,36,975.79
2008,01,05,00,37,975.82
2008,01,05,00,38,975.82
2008,01,05,00,39,975.79
2008,01,05,00,40,975.72
2008,01,05,00,41,975.65
2008,01,05,00,42,975.55
2008,01,05,00,43,975.48
2008,01,05,00,44,975.52
2008,01,05,00,45,975.55
2008,01,05,00,46,975.55
2008,01,05,00,47,975.48
2008,01,05,00,48,975.45
2008,01,05,00,49,975.48
2008,01,05,00,50,975.48
2008,01,05,00,51,975.52
2008,01,05,00,52,975.62
2008,01,05,00,53,975.65
2008,01,05,00,54,975.59
2008,01,05,00,55,975.62
2008,01,05,00,56,975.62
2008,01,05,00,57,975.72
2008,01,05,00,58,975.65
2008,01,05,00,59,975.69
2008,01,05,01,00,975.72
2008,01,05,01,01,975.79
2008,01,05,01,02,975.75
2008,01,05,01,03,975.79
2008,01,05,01,04,975.75
2008,01,05,01,05,975.79
2008,01,05,01,06,975.79
2008,01,05,01,07,975.75
2008,01,05,01,08,975.69
2008,01,05,01,09,975.69
2008,01,05,01,10,975.65
2008,01,05,01,11,975.69
2008,01,05,01,12,975.65
2008,01,05,01,13,975.72
2008,01,05,01,14,975.72
2008,01,05,01,15,975.75
2008,01,05,01,16,975.82
2008,01,05,01,17,975.79
2008,01,05,01,18,975.72
2008,01,05,01,19,975.75
2008,01,05,01,20,975.72
2008,01,05,01,21,975.75
2008,01,05,01,22,975.79
2008,01,05,01,23,975.79
2008,01,05,01,24,975.82
2008,01,05,01,25,975.75
2008,01,05,01,26,975.82
2008,01,05,01,27,975.82
2008,01,05,01,28,975.79
2008,01,05,01,29,975.79
2008,01,05,01,30,975.92
2008,01,05,01,31,975.96
2008,01,05,01,32,975.96
2008,01,05,01,33,976.03
2008,01,05,01,34,976.16
2008,01,05,01,35,976.26
2008,01,05,01,36,976.23
2008,01,05,01,37,976.36
2008,01,05,01,38,976.36
2008,01,05,01,39,976.43
2008,01,05,01,40,976.47
2008,01,05,01,41,976.53
2008,01,05,01,42,976.57
2008,01,05,01,43,976.70
2008,01,05,01,44,976.70
2008,01,05,01,45,976.70
2008,01,05,01,46,976.67
2008,01,05,01,47,976.60
2008,01,05,01,48,976.53
2008,01,05,01,49,976.57
2008,01,05,01,50,976.53
2008,01,05,01,51,976.60
2008,01,05,01,52,976.57
2008,01,05,01,53,976.60
2008,01,05,01,54,976.67
2008,01,05,01,55,976.74
2008,01,05,01,56,976.77
2008,01,05,01,57,976.84
2008,01,05,01,58,976.94
2008,01,05,01,59,977.11
2008,01,05,02,00,977.28
2008,01,05,02,01,977.31
2008,01,05,02,02,977.38
2008,01,05,02,03,977.48
2008,01,05,02,04,977.55
2008,01,05,02,05,977.62
2008,01,05,02,06,977.62
2008,01,05,02,07,977.62
2008,01,05,02,08,977.65
2008,01,05,02,09,977.65
2008,01,05,02,10,977.65
2008,01,05,02,11,977.65
2008,01,05,02,12,977.68
2008,01,05,02,13,977.75
2008,01,05,02,14,977.82
2008,01,05,02,15,977.82
2008,01,05,02,16,977.85
2008,01,05,02,17,977.85
2008,01,05,02,18,977.89
2008,01,05,02,19,977.89
2008,01,05,02,20,977.89
2008,01,05,02,21,977.92
2008,01,05,02,22,977.99
2008,01,05,02,23,978.09
2008,01,05,02,24,978.02
2008,01,05,02,25,978.19
2008,01,05,02,26,978.33
2008,01,05,02,27,978.33
2008,01,05,02,28,978.40
2008,01,05,02,29,978.46
2008,01,05,02,30,978.53
2008,01,05,02,31,978.70
2008,01,05,02,32,978.73
2008,01,05,02,33,978.77
2008,01,05,02,34,978.90
2008,01,05,02,35,978.90
2008,01,05,02,36,978.87
2008,01,05,02,37,978.94
2008,01,05,02,38,978.94
2008,01,05,02,39,979.01
2008,01,05,02,40,978.94
2008,01,05,02,41,978.94
2008,01,05,02,42,979.07
2008,01,05,02,43,979.11
2008,01,05,02,44,979.14
2008,01,05,02,45,979.07
2008,01,05,02,46,979.21
2008,01,05,02,47,979.17
2008,01,05,02,48,979.24
2008,01,05,02,49,979.21
2008,01,05,02,50,979.31
2008,01,05,02,51,979.38
2008,01,05,02,52,979.38
2008,01,05,02,53,979.51
2008,01,05,02,54,979.51
2008,01,05,02,55,979.51
2008,01,05,02,56,979.65
2008,01,05,02,57,979.68
2008,01,05,02,58,979.61
2008,01,05,02,59,979.72
2008,01,05,03,00,979.82
2008,01,05,03,01,979.82
2008,01,05,03,02,979.95
2008,01,05,03,03,979.89
2008,01,05,03,04,979.92
2008,01,05,03,05,979.92
2008,01,05,03,06,979.92
2008,01,05,03,07,979.99
2008,01,05,03,08,980.02
2008,01,05,03,09,980.06
2008,01,05,03,10,980.02
2008,01,05,03,11,980.09
2008,01,05,03,12,980.06
2008,01,05,03,13,980.09
2008,01,05,03,14,980.02
2008,01,05,03,15,979.99
2008,01,05,03,16,980.02
2008,01,05,03,17,980.02
2008,01,05,03,18,980.06
2008,01,05,03,19,980.06
2008,01,05,03,20,980.06
2008,01,05,03,21,980.16
2008,01,05,03,22,980.09
2008,01,05,03,23,980.16
2008,01,05,03,24,980.16
2008,01,05,03,25,980.19
2008,01,05,03,26,980.19
2008,01,05,03,27,980.22
2008,01,05,03,28,980.29
2008,01,05,03,29,980.29
2008,01,05,03,30,980.33
2008,01,05,03,31,980.39
2008,01,05,03,32,980.46
2008,01,05,03,33,980.53
2008,01,05,03,34,980.56
2008,01,05,03,35,980.63
2008,01,05,03,36,980.70
2008,01,05,03,37,980.66
2008,01,05,03,38,980.73
2008,01,05,03,39,980.66
2008,01,05,03,40,980.73
2008,01,05,03,41,980.73
2008,01,05,03,42,980.73
2008,01,05,03,43,980.73
2008,01,05,03,44,980.77
2008,01,05,03,45,980.80
2008,01,05,03,46,980.77
2008,01,05,03,47,980.83
2008,01,05,03,48,980.83
2008,01,05,03,49,980.83
2008,01,05,03,50,980.87
2008,01,05,03,51,980.87
2008,01,05,03,52,981.00
2008,01,05,03,53,981.04
2008,01,05,03,54,981.07
2008,01,05,03,55,981.04
2008,01,05,03,56,981.10
2008,01,05,03,57,981.14
2008,01,05,03,58,981.17
2008,01,05,03,59,981.24
2008,01,05,04,00,981.21
2008,01,05,04,01,981.27
2008,01,05,04,02,981.27
2008,01,05,04,03,981.34
2008,01,05,04,04,981.31
2008,01,05,04,05,981.34
2008,01,05,04,06,981.41
2008,01,05,04,07,981.44
2008,01,05,04,08,981.44
2008,01,05,04,09,981.44
2008,01,05,04,10,981.51
2008,01,05,04,11,981.55
2008,01,05,04,12,981.58
2008,01,05,04,13,981.58
2008,01,05,04,14,981.61
2008,01,05,04,15,981.68
2008,01,05,04,16,981.71
2008,01,05,04,17,981.71
2008,01,05,04,18,981.71
2008,01,05,04,19,981.71
2008,01,05,04,20,981.82
2008,01,05,04,21,981.85
2008,01,05,04,22,981.85
2008,01,05,04,23,981.85
2008,01,05,04,24,981.85
2008,01,05,04,25,981.99
2008,01,05,04,26,982.05
2008,01,05,04,27,982.02
2008,01,05,04,28,982.12
2008,01,05,04,29,982.19
2008,01,05,04,30,982.36
2008,01,05,04,31,982.46
2008,01,05,04,32,982.46
2008,01,05,04,33,982.49
2008,01,05,04,34,982.49
2008,01,05,04,35,982.53
2008,01,05,04,36,982.46
2008,01,05,04,37,982.49
2008,01,05,04,38,982.56
2008,01,05,04,39,982.49
2008,01,05,04,40,982.39
2008,01,05,04,41,982.39
2008,01,05,04,42,982.26
2008,01,05,04,43,982.19
2008,01,05,04,44,982.19
2008,01,05,04,45,982.22
2008,01,05,04,46,982.35
2008,01,05,04,47,982.39
2008,01,05,04,48,982.39
2008,01,05,04,49,982.43
2008,01,05,04,50,982.39
2008,01,05,04,51,982.49
2008,01,05,04,52,982.49
2008,01,05,04,53,982.53
2008,01,05,04,54,982.59
2008,01,05,04,55,982.59
2008,01,05,04,56,982.56
2008,01,05,04,57,982.63
2008,01,05,04,58,982.63
2008,01,05,04,59,982.59
2008,01,05,05,00,982.63
2008,01,05,05,01,982.66
2008,01,05,05,02,982.66
2008,01,05,05,03,982.70
2008,01,05,05,04,982.66
2008,01,05,05,05,982.70
2008,01,05,05,06,982.80
2008,01,05,05,07,982.87
2008,01,05,05,08,983.00
2008,01,05,05,09,983.00
2008,01,05,05,10,983.04
2008,01,05,05,11,983.10
2008,01,05,05,12,983.17
2008,01,05,05,13,983.17
2008,01,05,05,14,983.17
2008,01,05,05,15,983.24
2008,01,05,05,16,983.24
2008,01,05,05,17,983.27
2008,01,05,05,18,983.27
2008,01,05,05,19,983.31
2008,01,05,05,20,983.34
2008,01,05,05,21,983.37
2008,01,05,05,22,983.37
2008,01,05,05,23,983.31
2008,01,05,05,24,983.37
2008,01,05,05,25,983.31
2008,01,05,05,26,983.31
2008,01,05,05,27,983.34
2008,01,05,05,28,983.37
2008,01,05,05,29,983.37
2008,01,05,05,30,983.44
2008,01,05,05,31,983.41
2008,01,05,05,32,983.41
2008,01,05,05,33,983.44
2008,01,05,05,34,983.48
2008,01,05,05,35,983.58
2008,01,05,05,36,983.58
2008,01,05,05,37,983.64
2008,01,05,05,38,983.68
2008,01,05,05,39,983.68
2008,01,05,05,40,983.68
2008,01,05,05,41,983.64
2008,01,05,05,42,983.61
2008,01,05,05,43,983.61
2008,01,05,05,44,983.61
2008,01,05,05,45,983.61
2008,01,05,05,46,983.54
2008,01,05,05,47,983.54
2008,01,05,05,48,983.51
2008,01,05,05,49,983.51
2008,01,05,05,50,983.54
2008,01,05,05,51,983.54
2008,01,05,05,52,983.75
2008,01,05,05,53,983.81
2008,01,05,05,54,983.81
2008,01,05,05,55,983.88
2008,01,05,05,56,983.95
2008,01,05,05,57,983.95
2008,01,05,05,58,983.95
2008,01,05,05,59,983.98
2008,01,05,06,00,983.95
2008,01,05,06,01,984.02
2008,01,05,06,02,984.02
2008,01,05,06,03,983.95
2008,01,05,06,04,983.98
2008,01,05,06,05,984.08
2008,01,05,06,06,984.08
2008,01,05,06,07,984.12
2008,01,05,06,08,984.12
2008,01,05,06,09,984.15
2008,01,05,06,10,984.19
2008,01,05,06,11,984.19
2008,01,05,06,12,984.12
2008,01,05,06,13,984.08
2008,01,05,06,14,984.12
2008,01,05,06,15,984.08
2008,01,05,06,16,984.12
2008,01,05,06,17,984.19
2008,01,05,06,18,984.22
2008,01,05,06,19,984.25
2008,01,05,06,20,984.32
2008,01,05,06,21,984.36
2008,01,05,06,22,984.39
2008,01,05,06,23,984.42
2008,01,05,06,24,984.39
2008,01,05,06,25,984.46
2008,01,05,06,26,984.42
2008,01,05,06,27,984.46
2008,01,05,06,28,984.46
2008,01,05,06,29,984.46
2008,01,05,06,30,984.46
2008,01,05,06,31,984.46
2008,01,05,06,32,984.49
2008,01,05,06,33,984.53
2008,01,05,06,34,984.56
2008,01,05,06,35,984.59
2008,01,05,06,36,984.63
2008,01,05,06,37,984.63
2008,01,05,06,38,984.73
2008,01,05,06,39,984.73
2008,01,05,06,40,984.76
2008,01,05,06,41,984.76
2008,01,05,06,42,984.76
2008,01,05,06,43,984.73
2008,01,05,06,44,984.73
2008,01,05,06,45,984.76
2008,01,05,06,46,984.83
2008,01,05,06,47,984.90
2008,01,05,06,48,984.86
2008,01,05,06,49,984.93
2008,01,05,06,50,984.93
2008,01,05,06,51,984.97
2008,01,05,06,52,985.00
2008,01,05,06,53,985.07
2008,01,05,06,54,985.13
2008,01,05,06,55,985.10
2008,01,05,06,56,985.10
2008,01,05,06,57,985.10
2008,01,05,06,58,985.13
2008,01,05,06,59,985.20
2008,01,05,07,00,985.27
2008,01,05,07,01,985.27
2008,01,05,07,02,985.34
2008,01,05,07,03,985.41
2008,01,05,07,04,985.47
2008,01,05,07,05,985.44
2008,01,05,07,06,985.47
2008,01,05,07,07,985.54
2008,01,05,07,08,985.64
2008,01,05,07,09,985.64
2008,01,05,07,10,985.68
2008,01,05,07,11,985.68
2008,01,05,07,12,985.68
2008,01,05,07,13,985.68
2008,01,05,07,14,985.71
2008,01,05,07,15,985.81
2008,01,05,07,16,985.78
2008,01,05,07,17,985.85
2008,01,05,07,18,985.88
2008,01,05,07,19,985.88
2008,01,05,07,20,985.85
2008,01,05,07,21,985.85
2008,01,05,07,22,985.81
2008,01,05,07,23,985.78
2008,01,05,07,24,985.81
2008,01,05,07,25,985.81
2008,01,05,07,26,985.78
2008,01,05,07,27,985.78
2008,01,05,07,28,985.81
2008,01,05,07,29,985.71
2008,01,05,07,30,985.78
2008,01,05,07,31,985.81
2008,01,05,07,32,985.88
2008,01,05,07,33,985.95
2008,01,05,07,34,985.95
2008,01,05,07,35,985.98
2008,01,05,07,36,985.98
2008,01,05,07,37,985.98
2008,01,05,07,38,985.95
2008,01,05,07,39,985.98
2008,01,05,07,40,985.98
2008,01,05,07,41,986.05
2008,01,05,07,42,986.05
2008,01,05,07,43,986.05
2008,01,05,07,44,986.08
2008,01,05,07,45,986.08
2008,01,05,07,46,986.02
2008,01,05,07,47,986.08
2008,01,05,07,48,986.08
2008,01,05,07,49,986.08
2008,01,05,07,50,986.12
2008,01,05,07,51,986.22
2008,01,05,07,52,986.25
2008,01,05,07,53,986.25
2008,01,05,07,54,986.29
2008,01,05,07,55,986.25
2008,01,05,07,56,986.25
2008,01,05,07,57,986.32
2008,01,05,07,58,986.32
2008,01,05,07,59,986.26
2008,01,05,08,00,986.35
2008,01,05,08,01,986.35
2008,01,05,08,02,986.46
2008,01,05,08,03,986.46
2008,01,05,08,04,986.42
2008,01,05,08,05,986.49
2008,01,05,08,06,986.56
2008,01,05,08,07,986.66
2008,01,05,08,08,986.66
2008,01,05,08,09,986.69
2008,01,05,08,10,986.76
2008,01,05,08,11,986.73
2008,01,05,08,12,986.69
2008,01,05,08,13,986.79
2008,01,05,08,14,986.90
2008,01,05,08,15,986.93
2008,01,05,08,16,986.93
2008,01,05,08,17,986.96
2008,01,05,08,18,986.96
2008,01,05,08,19,987.00
2008,01,05,08,20,987.00
2008,01,05,08,21,987.03
2008,01,05,08,22,987.06
2008,01,05,08,23,987.10
2008,01,05,08,24,987.17
2008,01,05,08,25,987.20
2008,01,05,08,26,987.23
2008,01,05,08,27,987.20
2008,01,05,08,28,987.13
2008,01,05,08,29,987.17
2008,01,05,08,30,987.23
2008,01,05,08,31,987.23
2008,01,05,08,32,987.20
2008,01,05,08,33,987.27
2008,01,05,08,34,987.34
2008,01,05,08,35,987.34
2008,01,05,08,36,987.44
2008,01,05,08,37,987.54
2008,01,05,08,38,987.51
2008,01,05,08,39,987.47
2008,01,05,08,40,987.47
2008,01,05,08,41,987.51
2008,01,05,08,42,987.51
2008,01,05,08,43,987.64
2008,01,05,08,44,987.71
2008,01,05,08,45,987.74
2008,01,05,08,46,987.78
2008,01,05,08,47,987.88
2008,01,05,08,48,987.84
2008,01,05,08,49,987.95
2008,01,05,08,50,988.01
2008,01,05,08,51,988.05
2008,01,05,08,52,988.18
2008,01,05,08,53,988.25
2008,01,05,08,54,988.15
2008,01,05,08,55,988.25
2008,01,05,08,56,988.32
2008,01,05,08,57,988.35
2008,01,05,08,58,988.32
2008,01,05,08,59,988.35
2008,01,05,09,00,988.35
2008,01,05,09,01,988.42
2008,01,05,09,02,988.45
2008,01,05,09,03,988.45
2008,01,05,09,04,988.49
2008,01,05,09,05,988.59
2008,01,05,09,06,988.55
2008,01,05,09,07,988.62
2008,01,05,09,08,988.66
2008,01,05,09,09,988.69
2008,01,05,09,10,988.69
2008,01,05,09,11,988.69
2008,01,05,09,12,988.76
2008,01,05,09,13,988.72
2008,01,05,09,14,988.79
2008,01,05,09,15,988.79
2008,01,05,09,16,988.86
2008,01,05,09,17,988.89
2008,01,05,09,18,988.93
2008,01,05,09,19,988.96
2008,01,05,09,20,988.96
2008,01,05,09,21,989.00
2008,01,05,09,22,989.00
2008,01,05,09,23,989.00
2008,01,05,09,24,989.00
2008,01,05,09,25,989.03
2008,01,05,09,26,989.10
2008,01,05,09,27,989.13
2008,01,05,09,28,989.13
2008,01,05,09,29,989.20
2008,01,05,09,30,989.30
2008,01,05,09,31,989.27
2008,01,05,09,32,989.33
2008,01,05,09,33,989.30
2008,01,05,09,34,989.33
2008,01,05,09,35,989.33
2008,01,05,09,36,989.27
2008,01,05,09,37,989.23
2008,01,05,09,38,989.27
2008,01,05,09,39,989.30
2008,01,05,09,40,989.30
2008,01,05,09,41,989.30
2008,01,05,09,42,989.23
2008,01,05,09,43,989.23
2008,01,05,09,44,989.20
2008,01,05,09,45,989.20
2008,01,05,09,46,989.20
2008,01,05,09,47,989.30
2008,01,05,09,48,989.37
2008,01,05,09,49,989.40
2008,01,05,09,50,989.33
2008,01,05,09,51,989.30
2008,01,05,09,52,989.30
2008,01,05,09,53,989.33
2008,01,05,09,54,989.33
2008,01,05,09,55,989.40
2008,01,05,09,56,989.50
2008,01,05,09,57,989.54
2008,01,05,09,58,989.57
2008,01,05,09,59,989.54
2008,01,05,10,00,989.54
2008,01,05,10,01,989.50
2008,01,05,10,02,989.54
2008,01,05,10,03,989.57
2008,01,05,10,04,989.54
2008,01,05,10,05,989.57
2008,01,05,10,06,989.60
2008,01,05,10,07,989.64
2008,01,05,10,08,989.67
2008,01,05,10,09,989.64
2008,01,05,10,10,989.67
2008,01,05,10,11,989.67
2008,01,05,10,12,989.74
2008,01,05,10,13,989.71
2008,01,05,10,14,989.71
2008,01,05,10,15,989.74
2008,01,05,10,16,989.77
2008,01,05,10,17,989.88
2008,01,05,10,18,989.94
2008,01,05,10,19,990.04
2008,01,05,10,20,990.01
2008,01,05,10,21,990.01
2008,01,05,10,22,990.11
2008,01,05,10,23,990.11
2008,01,05,10,24,990.11
2008,01,05,10,25,990.04
2008,01,05,10,26,990.04
2008,01,05,10,27,990.04
2008,01,05,10,28,990.04
2008,01,05,10,29,990.08
2008,01,05,10,30,990.08
2008,01,05,10,31,990.15
2008,01,05,10,32,990.18
2008,01,05,10,33,990.21
2008,01,05,10,34,990.25
2008,01,05,10,35,990.35
2008,01,05,10,36,990.32
2008,01,05,10,37,990.35
2008,01,05,10,38,990.35
2008,01,05,10,39,990.35
2008,01,05,10,40,990.28
2008,01,05,10,41,990.38
2008,01,05,10,42,990.38
2008,01,05,10,43,990.38
2008,01,05,10,44,990.38
2008,01,05,10,45,990.38
2008,01,05,10,46,990.35
2008,01,05,10,47,990.35
2008,01,05,10,48,990.35
2008,01,05,10,49,990.35
2008,01,05,10,50,990.32
2008,01,05,10,51,990.25
2008,01,05,10,52,990.21
2008,01,05,10,53,990.21
2008,01,05,10,54,990.28
2008,01,05,10,55,990.25
2008,01,05,10,56,990.25
2008,01,05,10,57,990.25
2008,01,05,10,58,990.28
2008,01,05,10,59,990.32
2008,01,05,11,00,990.28
2008,01,05,11,01,990.35
2008,01,05,11,02,990.35
2008,01,05,11,03,990.32
2008,01,05,11,04,990.35
2008,01,05,11,05,990.38
2008,01,05,11,06,990.42
2008,01,05,11,07,990.49
2008,01,05,11,08,990.52
2008,01,05,11,09,990.52
2008,01,05,11,10,990.55
2008,01,05,11,11,990.52
2008,01,05,11,12,990.55
2008,01,05,11,13,990.62
2008,01,05,11,14,990.59
2008,01,05,11,15,990.52
2008,01,05,11,16,990.55
2008,01,05,11,17,990.52
2008,01,05,11,18,990.55
2008,01,05,11,19,990.59
2008,01,05,11,20,990.59
2008,01,05,11,21,990.55
2008,01,05,11,22,990.52
2008,01,05,11,23,990.52
2008,01,05,11,24,990.49
2008,01,05,11,25,990.49
2008,01,05,11,26,990.45
2008,01,05,11,27,990.42
2008,01,05,11,28,990.45
2008,01,05,11,29,990.49
2008,01,05,11,30,990.49
2008,01,05,11,31,990.49
2008,01,05,11,32,990.55
2008,01,05,11,33,990.52
2008,01,05,11,34,990.52
2008,01,05,11,35,990.45
2008,01,05,11,36,990.49
2008,01,05,11,37,990.52
2008,01,05,11,38,990.49
2008,01,05,11,39,990.49
2008,01,05,11,40,990.42
2008,01,05,11,41,990.45
2008,01,05,11,42,990.42
2008,01,05,11,43,990.35
2008,01,05,11,44,990.35
2008,01,05,11,45,990.42
2008,01,05,11,46,990.42
2008,01,05,11,47,990.49
2008,01,05,11,48,990.52
2008,01,05,11,49,990.52
2008,01,05,11,50,990.55
2008,01,05,11,51,990.55
2008,01,05,11,52,990.62
2008,01,05,11,53,990.59
2008,01,05,11,54,990.55
2008,01,05,11,55,990.55
2008,01,05,11,56,990.52
2008,01,05,11,57,990.65
2008,01,05,11,58,990.69
2008,01,05,11,59,990.65
2008,01,05,12,00,990.69
2008,01,05,12,01,990.69
2008,01,05,12,02,990.65
2008,01,05,12,03,990.72
2008,01,05,12,04,990.76
2008,01,05,12,05,990.76
2008,01,05,12,06,990.79
2008,01,05,12,07,990.79
2008,01,05,12,08,990.79
2008,01,05,12,09,990.86
2008,01,05,12,10,990.93
2008,01,05,12,11,990.93
2008,01,05,12,12,991.03
2008,01,05,12,13,991.03
2008,01,05,12,14,990.99
2008,01,05,12,15,991.03
2008,01,05,12,16,991.03
2008,01,05,12,17,990.99
2008,01,05,12,18,991.13
2008,01,05,12,19,991.16
2008,01,05,12,20,991.20
2008,01,05,12,21,991.23
2008,01,05,12,22,991.20
2008,01,05,12,23,991.16
2008,01,05,12,24,991.13
2008,01,05,12,25,991.13
2008,01,05,12,26,991.16
2008,01,05,12,27,991.20
2008,01,05,12,28,991.20
2008,01,05,12,29,991.20
2008,01,05,12,30,991.23
2008,01,05,12,31,991.20
2008,01,05,12,32,991.23
2008,01,05,12,33,991.23
2008,01,05,12,34,991.23
2008,01,05,12,35,991.23
2008,01,05,12,36,991.20
2008,01,05,12,37,991.30
2008,01,05,12,38,991.33
2008,01,05,12,39,991.33
2008,01,05,12,40,991.33
2008,01,05,12,41,991.37
2008,01,05,12,42,991.37
2008,01,05,12,43,991.30
2008,01,05,12,44,991.30
2008,01,05,12,45,991.37
2008,01,05,12,46,991.33
2008,01,05,12,47,991.30
2008,01,05,12,48,991.33
2008,01,05,12,49,991.37
2008,01,05,12,50,991.37
2008,01,05,12,51,991.37
2008,01,05,12,52,991.33
2008,01,05,12,53,991.37
2008,01,05,12,54,991.43
2008,01,05,12,55,991.37
2008,01,05,12,56,991.37
2008,01,05,12,57,991.37
2008,01,05,12,58,991.37
2008,01,05,12,59,991.37
2008,01,05,13,00,991.33
2008,01,05,13,01,991.40
2008,01,05,13,02,991.43
2008,01,05,13,03,991.47
2008,01,05,13,04,991.50
2008,01,05,13,05,991.57
2008,01,05,13,06,991.50
2008,01,05,13,07,991.50
2008,01,05,13,08,991.60
2008,01,05,13,09,991.57
2008,01,05,13,10,991.57
2008,01,05,13,11,991.57
2008,01,05,13,12,991.60
2008,01,05,13,13,991.64
2008,01,05,13,14,991.67
2008,01,05,13,15,991.67
2008,01,05,13,16,991.60
2008,01,05,13,17,991.60
2008,01,05,13,18,991.64
2008,01,05,13,19,991.60
2008,01,05,13,20,991.64
2008,01,05,13,21,991.70
2008,01,05,13,22,991.74
2008,01,05,13,23,991.77
2008,01,05,13,24,991.70
2008,01,05,13,25,991.67
2008,01,05,13,26,991.67
2008,01,05,13,27,991.77
2008,01,05,13,28,991.81
2008,01,05,13,29,991.77
2008,01,05,13,30,991.77
2008,01,05,13,31,991.77
2008,01,05,13,32,991.77
2008,01,05,13,33,991.81
2008,01,05,13,34,991.87
2008,01,05,13,35,991.87
2008,01,05,13,36,991.94
2008,01,05,13,37,991.91
2008,01,05,13,38,991.87
2008,01,05,13,39,991.91
2008,01,05,13,40,991.87
2008,01,05,13,41,991.91
2008,01,05,13,42,991.98
2008,01,05,13,43,991.98
2008,01,05,13,44,991.92
2008,01,05,13,45,992.04
2008,01,05,13,46,992.01
2008,01,05,13,47,992.04
2008,01,05,13,48,992.04
2008,01,05,13,49,992.04
2008,01,05,13,50,992.08
2008,01,05,13,51,992.04
2008,01,05,13,52,992.01
2008,01,05,13,53,992.01
2008,01,05,13,54,992.08
2008,01,05,13,55,992.04
2008,01,05,13,56,992.01
2008,01,05,13,57,991.91
2008,01,05,13,58,991.84
2008,01,05,13,59,991.92
2008,01,05,14,00,992.08
2008,01,05,14,01,992.08
2008,01,05,14,02,992.11
2008,01,05,14,03,992.08
2008,01,05,14,04,992.04
2008,01,05,14,05,992.01
2008,01,05,14,06,991.87
2008,01,05,14,07,991.98
2008,01,05,14,08,992.14
2008,01,05,14,09,992.21
2008,01,05,14,10,992.21
2008,01,05,14,11,992.18
2008,01,05,14,12,992.14
2008,01,05,14,13,992.04
2008,01,05,14,14,992.08
2008,01,05,14,15,992.21
2008,01,05,14,16,992.31
2008,01,05,14,17,992.35
2008,01,05,14,18,992.42
2008,01,05,14,19,992.35
2008,01,05,14,20,992.35
2008,01,05,14,21,992.31
2008,01,05,14,22,992.28
2008,01,05,14,23,992.28
2008,01,05,14,24,992.38
2008,01,05,14,25,992.38
2008,01,05,14,26,992.42
2008,01,05,14,27,992.38
2008,01,05,14,28,992.35
2008,01,05,14,29,992.35
2008,01,05,14,30,992.38
2008,01,05,14,31,992.42
2008,01,05,14,32,992.42
2008,01,05,14,33,992.39
2008,01,05,14,34,992.48
2008,01,05,14,35,992.48
2008,01,05,14,36,992.48
2008,01,05,14,37,992.52
2008,01,05,14,38,992.58
2008,01,05,14,39,992.55
2008,01,05,14,40,992.55
2008,01,05,14,41,992.58
2008,01,05,14,42,992.55
2008,01,05,14,43,992.55
2008,01,05,14,44,992.62
2008,01,05,14,45,992.62
2008,01,05,14,46,992.69
2008,01,05,14,47,992.72
2008,01,05,14,48,992.69
2008,01,05,14,49,992.72
2008,01,05,14,50,992.72
2008,01,05,14,51,992.72
2008,01,05,14,52,992.72
2008,01,05,14,53,992.79
2008,01,05,14,54,992.86
2008,01,05,14,55,992.86
2008,01,05,14,56,992.86
2008,01,05,14,57,992.86
2008,01,05,14,58,992.89
2008,01,05,14,59,992.92
2008,01,05,15,00,992.89
2008,01,05,15,01,992.89
2008,01,05,15,02,992.92
2008,01,05,15,03,992.92
2008,01,05,15,04,992.92
2008,01,05,15,05,992.89
2008,01,05,15,06,992.96
2008,01,05,15,07,992.99
2008,01,05,15,08,993.03
2008,01,05,15,09,993.09
2008,01,05,15,10,993.06
2008,01,05,15,11,993.03
2008,01,05,15,12,993.06
2008,01,05,15,13,993.09
2008,01,05,15,14,993.13
2008,01,05,15,15,993.16
2008,01,05,15,16,993.13
2008,01,05,15,17,993.19
2008,01,05,15,18,993.23
2008,01,05,15,19,993.23
2008,01,05,15,20,993.26
2008,01,05,15,21,993.30
2008,01,05,15,22,993.26
2008,01,05,15,23,993.30
2008,01,05,15,24,993.33
2008,01,05,15,25,993.30
2008,01,05,15,26,993.30
2008,01,05,15,27,993.33
2008,01,05,15,28,993.30
2008,01,05,15,29,993.36
2008,01,05,15,30,993.30
2008,01,05,15,31,993.36
2008,01,05,15,32,993.33
2008,01,05,15,33,993.33
2008,01,05,15,34,993.33
2008,01,05,15,35,993.33
2008,01,05,15,36,993.40
2008,01,05,15,37,993.40
2008,01,05,15,38,993.43
2008,01,05,15,39,993.40
2008,01,05,15,40,993.36
2008,01,05,15,41,993.40
2008,01,05,15,42,993.43
2008,01,05,15,43,993.53
2008,01,05,15,44,993.43
2008,01,05,15,45,993.43
2008,01,05,15,46,993.50
2008,01,05,15,47,993.50
2008,01,05,15,48,993.50
2008,01,05,15,49,993.53
2008,01,05,15,50,993.53
2008,01,05,15,51,993.57
2008,01,05,15,52,993.57
2008,01,05,15,53,993.60
2008,01,05,15,54,993.63
2008,01,05,15,55,993.63
2008,01,05,15,56,993.63
2008,01,05,15,57,993.60
2008,01,05,15,58,993.63
2008,01,05,15,59,993.60
2008,01,05,16,00,993.67
2008,01,05,16,01,993.63
2008,01,05,16,02,993.67
2008,01,05,16,03,993.67
2008,01,05,16,04,993.63
2008,01,05,16,05,993.63
2008,01,05,16,06,993.63
2008,01,05,16,07,993.63
2008,01,05,16,08,993.67
2008,01,05,16,09,993.70
2008,01,05,16,10,993.84
2008,01,05,16,11,993.87
2008,01,05,16,12,993.87
2008,01,05,16,13,993.91
2008,01,05,16,14,993.94
2008,01,05,16,15,993.87
2008,01,05,16,16,993.84
2008,01,05,16,17,993.91
2008,01,05,16,18,993.87
2008,01,05,16,19,994.01
2008,01,05,16,20,994.04
2008,01,05,16,21,994.07
2008,01,05,16,22,994.07
2008,01,05,16,23,994.11
2008,01,05,16,24,994.11
2008,01,05,16,25,994.11
2008,01,05,16,26,994.14
2008,01,05,16,27,994.18
2008,01,05,16,28,994.18
2008,01,05,16,29,994.21
2008,01,05,16,30,994.24
2008,01,05,16,31,994.21
2008,01,05,16,32,994.28
2008,01,05,16,33,994.35
2008,01,05,16,34,994.35
2008,01,05,16,35,994.38
2008,01,05,16,36,994.48